sat.trackr.live / text

‹ back to catalog

ONEWEB-0615

NORAD 54676 · 2022-166AL

PAYLOAD ACTIVE UNKNOWN

§ Identity

Operator
Country
UK
Launch date
2022-12-08
Launch site
AFETR
Launch vehicle
Mass (kg)
RCS (m²)

Purposes: comms

External: N2YO · Heavens-Above · Gunter

§ Orbital elements

Epoch: 2026-09-20T04:10:29.123616Z

Period
108.94 min
Inclination
87.9276°
Eccentricity
0.0001950
Mean motion
13.21824055 rev/d
Perigee alt
1,176.3 km
Apogee alt
1,179.2 km
Semi-major
7,555.9 km
B*
-5.1273e-6
RAAN
225.0801°
Arg perigee
72.8396°
Mean anomaly
287.2951°
Rev number
18,399

§ Raw data

ONEWEB-06151 54676U 22166AL  26263.17394819  .00000011  00000+0 -51273-5 0  99912 54676  87.9276 225.0801 0001950  72.8396 287.2951 13.21824055183992

JSON: /api/v1/satellites/54676 · /tle

For live sub-satellite position, see the globe view (requires WebGL).

§ Visibility from observer

Set your observer location to see the next 7 days of passes ≥ 10°. The values pass through the URL so the page stays shareable.

No JS? Fill the form by hand. The geolocation button needs JavaScript.